Regional Weather Roundup
Issued by NWS

Home | Current Version | Previous Version | Graphics & Text | Print | Product List | Glossary On
Versions: 1 2 3 4 5 6 7 8 9 10 11 12 13 14 15 16 17 18 19 20 21 22 23 24 25 26 27
000
ASUS45 KCYS 220910
RWRWY

WYOMING REGIONAL WEATHER ROUNDUP
NATIONAL WEATHER SERVICE CHEYENNE WY
300 AM MDT FRI JUL 22 2016

NOTE:  "FAIR" INDICATES FEW OR NO CLOUDS BELOW 12,000 FEET
WITH NO SIGNIFICANT WEATHER AND/OR OBSTRUCTIONS TO VISIBILITY.

WYZ001-221000-
YELLOWSTONE NATIONAL PARK

CITY           SKY/WX    TMP DP  RH WIND       PRES   REMARKS
LK YELLOWSTONE   N/A     46  35  65 CALM      30.40S
W YELLOWSTONE  NOT AVBL

$$
WYZ002>013-054>058-071-098>099-221000-
NORTHERN WYOMING

CITY           SKY/WX    TMP DP  RH WIND       PRES   REMARKS
JACKSON        FAIR      54  41  62 N6        30.29S
CODY           FAIR      72  36  26 W5        30.13F
GREYBULL       FAIR      73  40  30 S3        30.03S
WORLAND        FAIR      76  42  29 CALM      30.06S
SHERIDAN       FAIR      65  45  48 CALM      30.06F
BUFFALO        FAIR      71  39  31 W8        30.16F
GILLETTE       FAIR      75  46  35 SE10      30.10F
HULETT         FAIR      70  37  30 S10       30.14S
NEWCASTLE      FAIR      72  43  35 E9        30.15F

$$
WYZ014>020-022>026-101>103-221000-
CENTRAL WYOMING

CITY           SKY/WX    TMP DP  RH WIND       PRES   REMARKS
BIG PINEY      FAIR      53  40  61 N9        30.37S
PINEDALE       FAIR      50  41  71 NW5       30.38S
DUBOIS         FAIR      59  34  38 NW5       30.34S
LANDER         FAIR      73  38  27 CALM      30.17S
RIVERTON       FAIR      71  45  39 S13       30.19F
CASPER         FAIR      69  44  40 SW3       30.23R
DOUGLAS          N/A    N/A N/A N/A MISG      30.21S

$$
WYZ021-027>030-104>119-221000-
SOUTHERN WYOMING

CITY           SKY/WX    TMP DP  RH WIND       PRES   REMARKS
EVANSTON       FAIR      65  42  43 SW13      30.38S
KEMMERER         N/A     57  34  41 N7        30.37F
FORT BRIDGER   FAIR      69  40  35 W16G23    30.38F
ROCK SPRINGS   FAIR      60  42  51 S5        30.33F
DIXON          FAIR      54  48  82 CALM      30.39S
RAWLINS        FAIR      52  40  63 NW5       30.36F
SARATOGA       FAIR      59  46  63 S13       30.39F
LARAMIE        FAIR      63  45  51 CALM      30.39F
CHEYENNE       FAIR      73  43  33 NW3       30.28F
TORRINGTON     FAIR      72  54  53 VRB3      30.12F
PINE BLUFFS    FAIR      68  55  64 CALM      30.21S

$$




USA.gov is the U.S. government's official web portal to all federal, state and local government web resources and services.